BURSTCUBE (59562 NORAD) Tracking and Keplerian Element Data

This shows tracking and keplerian element data for the satellite.

Feedback or suggestion? Click here.




ElementValue
Catalog59562
NameBURSTCUBE
Epoch Orbit786
Epoch Day159.84399348
Epoch Year2024
RAAN359.9975
Inclination51.6366
Eccentricity0.0005668
Argument of Perigee263.49
Mean Anonmoly96.5448
Mean Motion15.59352058
Decay Rate0.00113656
L11 59562U 98067WM 24159.84399348 .00113656 00000+0 13990-2 0 9991
L22 59562 51.6366 359.9975 0005668 263.4900 96.5448 15.59352058 7862



Live tracking and technical data element details for BURSTCUBE (NORAD 59562). BURSTCUBE can be tracked NOW for your location showing map with azimuth and elevation plus other details from your city location.







IsCatalogInMostPopularTable: catalog: 59562, numindb: 12
Update: records affected: 1



GetName: 59562 BURSTCUBE

Hit Count: updated at: Fri, 14 Jun 2024 18:56:57 GMT